TimeEST,TemperatureF,Dew PointF,Humidity,Sea Level PressureIn,VisibilityMPH,Wind Direction,Wind SpeedMPH,Gust SpeedMPH,PrecipitationIn,Events,Conditions,WindDirDegrees,DateUTC
12:56 AM,52.0,48.9,89,30.44,10.0,North,3.5,-,N/A,,Clear,350,2013-01-10 05:56:00
1:56 AM,51.1,48.9,92,30.44,10.0,Calm,Calm,-,N/A,,Clear,0,2013-01-10 06:56:00
2:56 AM,50.0,48.0,93,30.44,8.0,Calm,Calm,-,N/A,,Clear,0,2013-01-10 07:56:00
3:56 AM,48.0,46.9,96,30.43,5.0,Calm,Calm,-,N/A,,Clear,0,2013-01-10 08:56:00
4:56 AM,46.9,46.0,97,30.43,6.0,Calm,Calm,-,N/A,,Clear,0,2013-01-10 09:56:00
5:56 AM,46.9,46.0,97,30.43,5.0,Calm,Calm,-,N/A,,Clear,0,2013-01-10 10:56:00
6:56 AM,46.9,46.0,97,30.44,5.0,Calm,Calm,-,N/A,,Clear,0,2013-01-10 11:56:00
7:56 AM,46.0,45.0,96,30.46,4.0,North,3.5,-,N/A,,Clear,10,2013-01-10 12:56:00
8:56 AM,53.1,50.0,89,30.48,9.0,NE,4.6,-,N/A,,Clear,50,2013-01-10 13:56:00
9:56 AM,57.0,50.0,77,30.48,10.0,ENE,3.5,-,N/A,,Clear,70,2013-01-10 14:56:00
10:56 AM,64.0,51.1,63,30.47,10.0,NE,5.8,-,N/A,,Clear,50,2013-01-10 15:56:00
11:56 AM,69.1,50.0,51,30.44,10.0,NE,5.8,-,N/A,,Clear,50,2013-01-10 16:56:00
12:56 PM,70.0,51.1,51,30.41,10.0,Variable,6.9,-,N/A,,Clear,0,2013-01-10 17:56:00
1:56 PM,72.0,52.0,49,30.39,10.0,East,5.8,-,N/A,,Partly Cloudy,90,2013-01-10 18:56:00
2:56 PM,72.0,52.0,49,30.37,10.0,East,5.8,-,N/A,,Mostly Cloudy,80,2013-01-10 19:56:00
3:56 PM,70.0,52.0,53,30.37,10.0,ESE,6.9,-,N/A,,Scattered Clouds,110,2013-01-10 20:56:00
4:56 PM,69.1,52.0,54,30.39,10.0,ESE,6.9,-,N/A,,Overcast,110,2013-01-10 21:56:00
5:56 PM,66.9,52.0,59,30.39,10.0,Calm,Calm,-,N/A,,Overcast,0,2013-01-10 22:56:00
6:56 PM,66.0,53.1,63,30.39,10.0,ENE,3.5,-,N/A,,Overcast,70,2013-01-10 23:56:00
7:56 PM,64.9,54.0,68,30.38,10.0,East,3.5,-,N/A,,Overcast,80,2013-01-11 00:56:00
8:56 PM,63.0,55.0,75,30.38,10.0,ESE,6.9,16.1,N/A,,Overcast,120,2013-01-11 01:56:00
9:56 PM,61.0,57.0,87,30.37,9.0,SE,4.6,-,0.01,,Overcast,140,2013-01-11 02:56:00
10:10 PM,60.8,57.2,88,30.37,8.0,SE,9.2,-,0.00,Rain,Light Rain,130,2013-01-11 03:10:00
10:45 PM,59.0,57.2,94,30.36,6.0,ESE,4.6,-,0.00,,Overcast,120,2013-01-11 03:45:00
10:54 PM,59.0,57.2,94,30.36,5.0,ESE,5.8,-,0.00,,Overcast,120,2013-01-11 03:54:00
10:56 PM,59.0,57.0,93,30.35,5.0,ESE,6.9,-,0.00,,Overcast,120,2013-01-11 03:56:00